TimeCDT,TemperatureF,Dew PointF,Humidity,Sea Level PressureIn,VisibilityMPH,Wind Direction,Wind SpeedMPH,Gust SpeedMPH,PrecipitationIn,Events,Conditions,WindDirDegrees,DateUTC
12:35 AM,64.4,60.8,88,30.16,10.0,Calm,Calm,-,N/A,,Clear,0,2012-10-12 05:35:00
12:55 AM,64.4,59.0,83,30.16,10.0,Calm,Calm,-,N/A,,Mostly Cloudy,0,2012-10-12 05:55:00
1:15 AM,64.4,60.8,88,30.16,10.0,SSE,3.5,-,N/A,,Overcast,160,2012-10-12 06:15:00
1:35 AM,66.2,60.8,83,30.16,10.0,South,3.5,-,N/A,,Overcast,180,2012-10-12 06:35:00
1:55 AM,66.2,60.8,83,30.16,10.0,South,3.5,-,N/A,,Overcast,190,2012-10-12 06:55:00
2:15 AM,64.4,60.8,88,30.15,10.0,South,4.6,-,N/A,,Mostly Cloudy,180,2012-10-12 07:15:00
2:36 AM,64.4,60.8,88,30.14,10.0,South,4.6,-,N/A,,Clear,170,2012-10-12 07:36:00
3:15 AM,64.4,60.8,88,30.13,10.0,South,4.6,-,N/A,,Clear,180,2012-10-12 08:15:00
3:35 AM,64.4,60.8,88,30.12,10.0,South,4.6,-,N/A,,Clear,180,2012-10-12 08:35:00
3:55 AM,64.4,60.8,88,30.11,10.0,South,4.6,-,N/A,,Clear,170,2012-10-12 08:55:00
4:15 AM,64.4,60.8,88,30.11,10.0,SSE,3.5,-,N/A,,Clear,160,2012-10-12 09:15:00
4:35 AM,62.6,59.0,88,30.12,8.0,SSE,4.6,-,N/A,,Mostly Cloudy,160,2012-10-12 09:35:00
4:55 AM,64.4,60.8,88,30.12,9.0,South,4.6,-,N/A,,Overcast,170,2012-10-12 09:55:00
5:15 AM,64.4,62.6,94,30.12,10.0,SSE,4.6,-,N/A,,Mostly Cloudy,150,2012-10-12 10:15:00
5:55 AM,66.2,62.6,88,30.14,10.0,Calm,Calm,-,N/A,,Mostly Cloudy,0,2012-10-12 10:55:00
6:15 AM,66.2,62.6,88,30.14,10.0,SE,3.5,-,N/A,,Mostly Cloudy,140,2012-10-12 11:15:00
6:36 AM,66.2,62.6,88,30.15,10.0,SE,4.6,-,N/A,,Overcast,140,2012-10-12 11:36:00
6:55 AM,66.2,62.6,88,30.15,10.0,SSE,5.8,-,N/A,,Overcast,150,2012-10-12 11:55:00
7:15 AM,68.0,62.6,83,30.16,10.0,SE,3.5,-,N/A,Thunderstorm,Overcast,130,2012-10-12 12:15:00
7:35 AM,66.2,62.6,88,30.18,10.0,ENE,12.7,17.3,N/A,Thunderstorm,Overcast,60,2012-10-12 12:35:00
7:55 AM,66.2,60.8,83,30.18,10.0,ENE,19.6,-,N/A,Thunderstorm,Overcast,70,2012-10-12 12:55:00
8:15 AM,64.4,59.0,83,30.20,10.0,ENE,15.0,21.9,N/A,Thunderstorm,Thunderstorm,70,2012-10-12 13:15:00
8:35 AM,64.4,59.0,83,30.22,10.0,ENE,12.7,20.7,0.11,Thunderstorm,Thunderstorm,60,2012-10-12 13:35:00
9:35 AM,62.6,60.8,94,30.26,3.0,SE,6.9,-,0.84,Thunderstorm,Thunderstorm,140,2012-10-12 14:35:00
10:15 AM,62.6,60.8,94,30.25,9.0,ESE,10.4,-,N/A,Thunderstorm,Thunderstorm,120,2012-10-12 15:15:00
10:35 AM,62.6,60.8,94,30.25,7.0,ESE,10.4,-,N/A,Thunderstorm,Thunderstorm,120,2012-10-12 15:35:00
11:15 AM,62.6,60.8,94,30.25,9.0,SE,13.8,-,N/A,,Overcast,130,2012-10-12 16:15:00
11:55 AM,62.6,60.8,94,30.27,7.0,ESE,10.4,-,0.17,,Overcast,120,2012-10-12 16:55:00
12:15 PM,62.6,60.8,94,30.27,7.0,SE,6.9,-,0.09,,Overcast,130,2012-10-12 17:15:00
12:55 PM,62.6,60.8,94,30.25,8.0,SE,11.5,-,0.31,,Overcast,130,2012-10-12 17:55:00
1:35 PM,62.6,60.8,94,30.22,10.0,SSE,11.5,-,0.03,,Mostly Cloudy,160,2012-10-12 18:35:00
1:55 PM,62.6,60.8,94,30.19,10.0,SSE,12.7,-,0.04,,Overcast,150,2012-10-12 18:55:00
2:35 PM,64.4,60.8,88,30.16,10.0,SSE,12.7,18.4,N/A,,Scattered Clouds,150,2012-10-12 19:35:00
2:56 PM,64.4,60.8,88,30.15,10.0,SSE,16.1,20.7,N/A,,Clear,160,2012-10-12 19:56:00
3:15 PM,66.2,60.8,83,30.14,10.0,SSE,15.0,21.9,N/A,,Clear,150,2012-10-12 20:15:00
3:35 PM,69.8,60.8,73,30.14,10.0,SSE,13.8,20.7,N/A,,Clear,150,2012-10-12 20:35:00
4:15 PM,68.0,59.0,73,30.14,10.0,SE,6.9,-,N/A,,Clear,140,2012-10-12 21:15:00
4:35 PM,68.0,59.0,73,30.14,10.0,SSE,3.5,-,N/A,,Clear,150,2012-10-12 21:35:00
4:55 PM,69.8,60.8,73,30.14,10.0,SSE,6.9,-,N/A,,Clear,150,2012-10-12 21:55:00
5:16 PM,68.0,60.8,78,30.15,10.0,SE,5.8,-,N/A,,Clear,140,2012-10-12 22:16:00
5:55 PM,68.0,60.8,78,30.15,10.0,SSE,6.9,-,N/A,,Clear,150,2012-10-12 22:55:00
6:15 PM,68.0,60.8,78,30.16,10.0,SSE,6.9,-,N/A,,Clear,150,2012-10-12 23:15:00
6:35 PM,66.2,59.0,78,30.16,10.0,SE,8.1,-,N/A,,Clear,140,2012-10-12 23:35:00
6:55 PM,66.2,59.0,78,30.15,10.0,SE,6.9,-,N/A,,Clear,140,2012-10-12 23:55:00
7:15 PM,64.4,59.0,83,30.15,9.0,SE,8.1,-,N/A,,Clear,140,2012-10-13 00:15:00
7:35 PM,64.4,57.2,77,30.14,10.0,SE,10.4,-,N/A,,Clear,130,2012-10-13 00:35:00
7:55 PM,64.4,57.2,77,30.14,10.0,SE,11.5,-,N/A,,Clear,140,2012-10-13 00:55:00
8:15 PM,64.4,57.2,77,30.14,10.0,SE,6.9,-,N/A,,Clear,130,2012-10-13 01:15:00
8:55 PM,62.6,57.2,82,30.14,10.0,SE,6.9,-,N/A,,Clear,140,2012-10-13 01:55:00
9:35 PM,62.6,57.2,82,30.13,10.0,SE,5.8,-,N/A,,Clear,130,2012-10-13 02:35:00
9:55 PM,62.6,57.2,82,30.15,10.0,Calm,Calm,-,N/A,,Clear,0,2012-10-13 02:55:00
10:15 PM,60.8,57.2,88,30.15,10.0,ESE,4.6,-,N/A,,Clear,120,2012-10-13 03:15:00
10:35 PM,60.8,57.2,88,30.14,10.0,SE,5.8,-,N/A,,Clear,130,2012-10-13 03:35:00
11:15 PM,62.6,57.2,82,30.13,10.0,ESE,5.8,-,N/A,,Clear,120,2012-10-13 04:15:00
11:35 PM,62.6,59.0,88,30.13,10.0,SE,5.8,-,N/A,,Clear,140,2012-10-13 04:35:00
11:55 PM,60.8,57.2,88,30.12,10.0,SE,5.8,-,N/A,,Clear,140,2012-10-13 04:55:00